STARLINK-11627, 63107

Orbit data source: Space-Track

STARLINK-11627, 63107 is a payload satellite owned by SpaceX/Seattle (US) in LEO that was launched on Thu, 27 Feb 2025 UTC via an FALCON 9 launch vehicle from the Air Force Eastern Test Range (AFETR). Payload-class satellites include a variety of spacecraft equipped with specific instruments for various scientific and technological missions. These include communications satellites like Starlink; space stations such as the ISS; scientific satellites like the Hubble; Earth observation satellites from companies like Planet Labs, Umbra, and HawkEye 360; GPS; miniature CubeSats for education and research; and military/defense satellites.

Loading next visibility...
Identifier
63107, 2025-039D
Orbit
LEO
Last TLE update
8 hours ago
Origin
Manufacturer
SpaceX/Seattle
Mission
Operational Commercial Communications
Bus & Motor
STARLINK V2M, Unknown motor
Mass
730 kg wet, ~700 kg dry
Launch date (UTC)
2025-02-27 (4 months ago)
Launch vehicle
FALCON 9
Launch site
Air Force Eastern Test Range (AFETR)
Object type
Payload
Rocket body
Debris
Shape & HBR
Box + 2 Pan, 29 m
Radar Cross Section
36.964 m², Large (>1 m²)

Expand to show TLE details & history

TLE from 8 hours ago
0 STARLINK-11627
1 63107U 25039D   25182.07359948  .00188430  00000-0  14326-2 0  9991
2 63107  42.9989 313.4300 0001809 290.4560  69.6113 15.70944816 20764
Epoch: 2025-07-01T01:45Z
TLE epoch observation values (Epoch: 2025-07-01T01:45:58.995Z)
Latitude
-0.00002°
Longitude
7.55988°
Altitude
355.542 km
Speed
7.698 km/s
True Right ascension
20h 53m 43s
True Declination
0° 00' 00"
Sunlit
Object was in full shadow at epoch
Visualization orbit readout
Latitude
-6.17024°
Longitude
-0.96816°
Altitude
356.009 km
Speed
7.697 km/s
Apparent Right ascension
18h 41m 36s
Apparent Declination
-66° 45' 49"
Sunlit
Object is in full shadow
Visualization observer readout
Local Sidereal Time
20:59:42
Azimuth
193.756° SSW
Elevation
-19.896°
Doppler factor
1
Orbital elements
Apogee altitude
359.396 km
Perigee altitude
356.959 km
Semi-major axis
6,736.314 km
Eccentricity
0.00018
Inclination
42.9989°
RAAN
313.43°
Arg. of periapsis
290.456°
True anomaly
Unknown
Mean anomaly
69.6113°
Eccentric anomaly
Unknown
Mean motion
3.92563 °/min
Orbital period
91.7 mins
BSTAR
0.0014326
Loading maneuver chart data...
Loading SW <> Apogee altitude chart data...
Loading historical data...
Loading historical data...
Loading historical data...
Loading historical data...
Loading historical data...
Loading historical data...
Loading historical data...

STARLINK-11627 Visibility forecast

Observer location: undefined°, undefined°

Span
Click to sort rows by Start time (UTC) header in descending order
Start Az.
Max El. time (UTC)
Max El. Az.
Max El.
End time (UTC)
End Az.
5 mins2025-07-01 12:40:26.339Z231.792° WSW2025-07-01 12:43:26.339Z121.499° SE35.811°2025-07-01 12:45:26.339Z80.344° E
4 mins2025-07-01 14:17:26.339Z284.416° WNW2025-07-01 14:19:26.339Z15.708° NNE35.677°2025-07-01 14:21:26.339Z65.898° ENE
|